User: anonymous   Login
Location: Unspecified
(0.0000°N, 0.0000°E)
Time: 03:01:38
(UTC+00:00)
Language:

STARLINK-31394 - Orbit

View from above orbital plane
View from above orbital plane
View from above satellite
View from above satellite

Ground track
Ground track

The orbit is defined by the following mean orbital elements,

1 59185U          26145.32727176 +.00000000 +00000-0 +25352-4 0 00005
2 59185  43.0039   9.2319 0001076 282.1944  77.8787 15.27579842    01
Epoch (UTC): 25 May 2026 07:51:16
Eccentricity: 0.0001076
inclination: 43.0039°
perigee height: 482 km
apogee height: 484 km
right ascension of ascending node: 9.2319°
argument of perigee: 282.1944°
revolutions per day: 15.27579842
mean anomaly at epoch: 77.8787°

The dashed part of the orbit path shows where the satellite is in the earth's shadow,  

DLR